Dewpoint
53 49 48 47 42 45 38 38 29 36 34 29 24 31 30 31 33 34 35 35 35 36 37 44 48 46 43 45 45 46 45 47 46 41 42 50 59 65 66 66 67 67 67 68 68 69 69 69 70 70 70 69 68 68 68 67 66 67 66 65 67 67 66 65 65 64 64 65 65 65 65 65 65 65 65 64 63 63 64 66 66 66 66 66 66 66 67 67 67 68 69 69 69 69 68 68 68
47 48 46 47 48 39 33 37 31 31 29 26 28 24 25 27 33 34 34 35 36 37 47 48 50 51 51 50 50 50 47 55 48 52 58 62 65 65 66 67 66 65 67 67 67 68 69 70 70 69 70 70 69 68 67 66 65 66 65 64 64 67 67 66 65 65 65 64 64 64 64 64 65 64 64 65 65 65 65 66 67 66 67 66 66 67 67 67 68 68 68 69 69 68 68 68 68
48 43 43 43 39 34 37 33 30 27 27 26 26 24 27 29 33 33 35 35 36 51 52 51 48 46 43 42 42 43 44 58 56 59 62 64 62 64 66 66 66 67 66 67 67 68 69 69 69 70 70 70 69 68 67 67 66 66 66 64 64 66 67 67 67 66 65 64 64 64 64 65 65 65 65 66 65 64 65 66 66 65 65 67 67 67 67 67 67 68 68 68 68 68 68 68 67
53 51 43 39 37 39 32 33 30 28 27 27 24 26 25 30 32 34 36 36 50 48 42 43 43 46 42 39 41 54 53 56 59 61 61 63 62 65 66 66 67 67 67 67 67 68 68 68 69 70 70 70 70 68 68 68 67 67 65 64 64 64 67 67 67 68 67 65 65 66 66 65 66 67 67 67 66 65 65 65 64 67 67 67 66 66 67 67 67 67 68 68 68 68 68 67 67
48 53 44 39 38 33 34 29 28 28 24 26 24 22 27 29 33 34 35 38 49 37 41 45 47 48 48 48 50 46 47 58 60 62 62 65 66 66 66 66 66 65 66 67 67 68 69 68 70 70 70 70 70 69 68 68 67 66 65 65 65 63 63 66 68 67 68 68 68 68 68 67 66 66 66 67 67 66 66 66 66 66 66 66 66 67 67 67 67 67 67 67 68 67 67 67 67
46 44 48 42 33 39 28 28 31 28 27 25 27 26 23 25 33 33 37 41 46 39 39 45 44 46 50 53 53 50 54 55 60 61 63 65 66 66 66 67 65 65 66 68 67 68 69 68 69 70 70 70 70 70 69 68 67 66 66 65 64 64 63 66 67 66 68 69 69 68 68 68 68 68 68 67 66 66 65 66 67 67 67 67 67 67 67 67 67 67 67 67 67 67 67 67 67
43 38 39 38 36 37 31 27 27 26 26 24 26 21 24 26 32 37 39 43 40 39 40 44 50 46 47 50 55 56 56 58 61 61 65 66 66 67 66 66 65 65 66 68 68 68 69 68 69 70 70 69 70 70 69 68 68 67 66 66 66 65 64 65 66 66 66 68 68 68 67 67 67 66 66 66 67 66 67 67 67 67 67 66 66 67 66 67 67 67 67 67 67 67 67 67 66
48 37 38 33 32 32 28 28 29 28 29 24 25 23 26 28 31 39 39 39 36 36 44 49 46 41 42 52 52 56 56 58 59 65 66 66 66 66 66 65 65 65 65 67 68 68 69 68 69 70 70 70 69 70 70 68 67 67 67 67 65 65 63 65 67 66 66 68 68 68 68 66 66 66 66 66 67 66 66 66 66 66 65 65 66 66 66 66 66 66 67 67 66 67 67 66 66
39 39 39 32 29 32 27 28 27 28 28 28 27 28 40 28 35 39 39 36 38 40 48 50 48 36 36 52 51 55 57 60 62 66 66 66 66 66 65 65 64 65 66 66 67 69 69 67 68 69 69 70 70 70 70 69 68 67 68 67 66 65 65 64 64 64 65 67 68 68 67 67 66 66 67 66 65 65 65 65 66 65 66 66 66 66 66 66 66 66 67 66 66 67 66 66 65
38 36 32 31 34 30 23 28 26 24 26 26 26 24 32 33 36 38 37 34 36 46 48 44 43 34 44 48 52 55 59 61 65 66 66 66 66 66 65 65 64 65 66 65 67 67 69 69 67 68 68 69 70 70 70 69 68 68 68 67 66 65 65 64 63 64 66 67 67 67 66 66 65 65 65 65 66 65 65 65 65 65 65 66 65 66 65 65 66 66 66 66 66 66 66 65 64
33 40 37 31 29 28 29 27 26 26 25 23 26 24 31 35 35 35 35 35 39 45 44 46 41 49 50 50 53 55 57 60 64 64 66 66 66 65 65 65 65 65 65 65 66 67 69 69 68 67 67 68 69 70 70 70 69 69 68 67 66 65 65 64 64 67 67 67 66 65 65 66 66 66 66 66 66 66 66 66 65 65 65 65 65 66 65 65 65 65 66 66 66 66 65 64 64
28 36 37 29 27 28 29 26 26 27 30 27 27 36 33 36 34 33 33 33 36 38 43 45 38 50 49 47 52 57 58 63 65 65 66 66 66 65 65 66 65 65 65 65 67 67 68 69 69 68 66 67 68 69 69 69 69 69 68 67 66 65 65 65 64 66 66 66 66 67 66 66 66 66 66 66 66 66 65 65 65 65 65 66 65 65 65 65 65 65 66 66 66 66 65 64 64
34 37 29 27 28 27 28 26 27 34 28 21 28 33 35 33 33 33 33 33 36 37 38 41 49 46 40 48 52 53 60 63 65 66 66 66 66 66 66 65 65 65 65 65 66 66 68 68 68 68 66 65 66 66 67 68 69 69 68 67 66 66 65 64 64 67 68 67 66 66 66 66 66 67 67 67 67 66 66 66 65 66 65 65 65 65 65 65 65 65 65 65 66 65 65 64 64
38 38 33 31 31 27 25 26 25 23 20 24 24 31 35 35 35 33 34 34 35 35 37 38 50 49 47 47 47 54 59 63 64 66 66 66 66 65 65 65 65 65 65 65 65 66 67 67 67 67 66 67 68 66 65 67 68 68 68 67 67 66 66 67 68 68 68 68 67 67 67 67 67 67 67 67 66 66 66 66 66 65 65 65 65 65 65 65 65 65 65 65 65 65 65 64 64
38 41 36 32 29 29 30 25 25 22 24 27 28 34 34 32 31 33 34 33 34 36 41 50 52 35 27 34 38 54 58 62 64 66 65 65 65 65 65 65 65 65 65 65 64 66 66 67 67 67 66 66 66 67 68 68 66 66 66 66 66 66 67 66 66 67 66 66 66 66 66 65 65 65 65 65 66 65 64 63 64 65 64 64 65 65 65 65 64 64 64 64 64 64 64 64 63
41 38 34 32 29 26 27 26 27 23 22 24 26 27 33 30 28 32 32 34 37 41 42 44 44 37 39 32 45 46 58 62 65 65 65 65 65 64 64 64 65 65 65 65 65 65 67 66 66 66 66 65 65 66 66 68 65 64 65 66 66 65 65 65 65 64 63 63 63 63 63 64 63 64 62 64 63 64 63 63 63 65 64 65 65 65 65 65 64 63 63 63 63 63 63 63 62
43 38 31 28 28 26 30 27 23 24 25 24 24 30 33 32 29 28 32 38 34 42 47 49 44 54 49 38 47 52 61 64 64 64 64 64 64 63 64 64 64 64 64 64 65 65 65 66 66 66 66 66 65 65 65 66 66 64 64 64 63 63 63 63 62 61 60 59 60 59 61 65 64 64 65 65 61 65 59 61 63 65 65 65 64 64 65 65 64 64 64 63 63 62 61 60 60
39 32 31 29 31 26 30 26 23 27 22 20 25 24 33 31 27 29 38 35 45 46 46 48 51 53 53 53 54 56 63 64 64 63 63 63 63 62 62 63 63 63 63 64 65 65 65 65 65 66 66 66 65 65 65 65 66 65 66 66 66 64 62 61 63 64 62 63 59 62 64 63 63 64 64 63 65 64 64 60 61 64 65 65 65 65 65 65 65 64 64 64 63 61 58 60 59
34 32 32 29 30 29 30 26 25 20 21 21 21 23 32 32 25 26 29 29 40 40 43 48 49 51 56 57 59 60 63 63 63 63 62 62 62 62 61 62 62 63 63 64 64 64 65 64 64 66 65 66 66 65 66 66 66 65 65 64 64 62 63 63 63 63 63 62 62 62 62 62 62 62 62 62 61 58 60 59 61 63 63 63 64 64 64 64 64 63 63 62 60 57 59 59 60
37 31 32 37 36 31 32 26 24 21 24 20 21 25 29 30 27 30 30 31 40 35 36 40 47 48 54 56 59 61 62 62 63 63 62 62 62 62 61 62 62 62 62 63 64 64 64 64 64 64 64 66 66 66 66 65 66 65 64 64 63 63 63 62 62 61 62 62 61 61 61 61 61 61 61 60 60 62 61 58 58 59 60 59 59 60 60 60 61 61 60 58 57 56 58 58 59
34 27 35 41 46 32 23 29 28 24 23 23 24 25 25 25 25 30 28 32 35 35 35 35 40 47 54 57 59 60 62 62 62 63 62 63 63 62 61 61 62 62 62 63 64 64 64 64 64 64 64 65 66 65 65 65 65 65 64 63 62 63 62 62 62 61 61 61 60 61 61 60 61 61 62 62 62 62 62 62 61 61 60 60 58 59 57 57 57 58 58 57 58 58 59 57 58
32 25 37 42 31 37 34 22 24 22 24 22 25 23 22 25 26 27 31 24 24 30 33 36 36 44 55 57 59 61 61 62 62 62 62 62 62 62 62 63 64 64 63 63 64 64 64 64 64 64 64 64 65 65 65 65 65 64 64 63 63 62 62 62 61 61 61 60 60 60 59 60 61 61 61 61 60 61 61 61 60 60 60 59 59 58 57 56 57 58 59 59 57 58 57 57 57
44 37 40 42 29 30 25 23 23 23 23 22 25 24 23 23 23 27 31 25 26 27 32 36 37 48 56 58 59 60 61 61 62 62 62 62 63 63 63 63 63 64 64 63 63 64 64 64 64 64 64 64 64 64 65 65 65 64 64 63 63 62 61 61 61 61 60 60 60 60 61 60 60 61 60 60 60 60 61 60 60 59 59 59 58 58 56 54 55 56 58 57 56 56 57 57 58
36 45 37 34 32 29 25 23 24 20 22 21 23 25 24 23 22 27 30 29 21 26 29 23 43 55 58 58 59 60 60 61 62 62 63 62 62 62 63 63 64 64 64 64 64 64 64 64 64 63 63 63 64 64 64 64 65 64 64 63 63 62 61 61 61 61 60 60 60 60 60 60 60 60 60 60 60 59 60 59 59 59 59 58 57 57 58 54 55 55 56 57 58 57 58 57 58
26 25 39 35 24 24 24 22 22 21 21 23 25 24 23 23 23 24 24 27 28 29 51 52 55 56 57 58 58 59 60 61 61 62 63 63 63 63 64 64 64 64 64 64 64 64 65 64 64 64 63 63 63 63 63 63 64 64 64 64 63 61 61 61 61 60 60 60 60 60 59 60 60 60 60 60 59 59 59 59 59 59 58 57 57 57 57 57 56 56 57 57 56 58 58 59 57
29 28 33 30 28 27 25 22 22 21 21 23 22 21 20 20 24 21 21 21 24 44 52 53 54 55 56 57 58 59 60 60 61 61 62 63 63 63 63 64 64 63 64 64 64 64 64 65 65 64 63 63 63 63 63 63 63 63 63 63 63 62 62 62 61 60 61 60 60 60 60 60 60 59 59 59 59 60 59 58 58 59 58 58 57 58 56 57 58 56 56 56 57 57 58 58 57
28 32 35 28 29 29 26 22 21 22 22 21 21 21 20 20 24 21 21 21 45 46 51 52 53 54 55 56 58 59 59 60 60 61 61 61 62 62 63 64 63 63 63 63 64 64 64 64 65 64 64 63 63 63 63 63 63 63 63 63 63 63 63 62 61 61 61 60 60 60 60 60 60 59 59 59 59 60 59 59 58 58 58 58 57 58 56 57 57 58 58 58 58 58 58 56 56
27 31 32 30 32 27 25 24 24 22 19 20 21 21 22 19 25 20 22 25 40 37 49 52 52 53 55 55 56 58 58 59 60 60 60 60 60 62 62 63 63 63 63 63 63 64 64 64 64 64 64 64 64 63 63 63 63 63 63 63 62 62 62 62 62 61 60 61 60 60 60 60 60 60 60 59 59 59 58 58 58 58 58 58 57 58 57 56 58 57 56 56 56 56 56 56 55
30 23 20 21 23 23 25 26 24 20 18 19 21 20 18 22 18 21 20 37 37 38 47 50 52 51 53 54 55 56 57 58 59 59 59 60 60 61 62 62 63 63 63 63 63 63 63 63 63 64 64 65 64 63 63 63 63 63 63 63 62 62 62 62 62 61 61 61 60 60 60 60 59 60 59 59 58 59 58 58 57 57 58 58 56 56 57 56 57 57 57 53 55 56 56 57 54
23 22 22 20 21 21 22 22 22 19 19 19 19 17 19 19 18 20 22 38 39 41 45 49 51 51 51 53 54 55 56 56 57 59 59 59 60 61 61 62 62 63 63 63 63 63 63 63 63 63 64 64 64 64 64 64 64 63 63 63 63 63 62 62 61 62 61 61 60 60 60 60 60 60 60 59 59 59 58 58 58 57 57 57 56 56 57 57 58 58 58 57 55 56 57 56 55
23 23 21 24 22 22 23 21 22 20 22 19 17 18 17 17 17 19 30 38 30 31 35 46 49 50 51 52 54 55 55 57 58 58 59 59 60 60 61 62 62 63 63 63 63 63 63 63 63 63 63 64 64 64 64 64 64 64 64 64 63 63 62 62 62 61 61 61 60 60 60 60 59 60 60 60 59 59 58 58 57 58 58 57 57 57 58 57 57 59 57 58 57 56 55 55 54
24 22 23 23 23 25 26 28 19 21 20 19 17 19 16 16 16 19 21 35 31 24 28 38 46 49 50 51 53 54 55 56 57 57 58 59 59 59 60 60 61 62 62 62 63 63 63 63 63 63 63 63 63 63 64 64 64 64 64 62 64 63 63 62 62 61 61 61 60 60 60 60 59 59 59 60 59 59 59 59 59 59 57 57 57 56 57 58 57 57 56 56 58 58 55 57 54
23 26 28 24 23 22 22 22 23 22 20 21 16 18 16 16 18 15 19 31 36 28 25 30 39 46 49 51 52 53 54 55 55 56 57 57 58 59 59 60 60 61 62 62 62 62 62 63 62 63 63 63 63 63 64 63 64 64 64 64 64 63 63 62 62 62 61 61 61 60 60 60 59 59 59 59 60 58 58 59 59 58 57 57 57 56 57 57 57 57 56 54 56 58 56 56 56
23 28 24 27 21 21 21 21 21 28 21 18 20 17 16 21 25 22 22 27 34 32 29 28 30 39 46 50 51 52 53 54 54 55 56 57 58 58 59 58 60 60 61 61 62 62 62 62 62 62 63 64 64 63 63 63 64 64 65 65 63 64 63 63 63 62 61 61 61 61 60 60 59 59 59 59 59 59 58 58 58 57 56 56 56 55 56 55 56 56 56 54 54 55 55 55 55
20 20 23 23 19 19 22 25 24 19 20 18 18 17 16 16 17 20 18 27 30 27 26 28 29 31 37 45 48 50 51 52 53 54 55 57 58 58 58 59 60 60 60 60 61 61 61 62 62 62 62 63 64 64 64 64 64 65 65 65 64 64 64 64 63 62 61 61 61 61 61 60 59 59 59 58 58 58 58 58 57 56 55 55 55 55 55 54 55 55 55 56 55 55 55 55 55
21 21 23 23 21 19 18 19 19 19 18 17 17 18 17 17 17 17 19 23 25 22 25 25 26 27 29 36 41 46 48 50 52 53 54 56 57 58 58 59 59 59 60 60 60 61 61 61 61 62 62 63 64 64 64 64 64 63 63 64 63 63 64 63 63 63 62 61 61 61 60 60 60 59 59 58 58 58 58 57 57 56 56 56 56 56 55 55 55 55 55 56 56 55 54 54 55
24 26 26 21 22 20 18 17 19 22 18 16 17 17 17 17 17 17 18 21 24 21 20 20 21 23 24 26 32 38 42 45 48 51 53 54 55 57 58 58 59 59 59 60 60 60 60 60 61 61 61 62 62 63 63 63 63 63 63 63 63 63 63 63 63 63 62 62 62 61 61 60 60 60 59 59 59 58 58 58 58 57 57 57 57 57 57 56 56 56 55 56 56 55 54 54 54
25 24 24 22 24 21 19 17 20 21 18 18 18 17 18 17 17 17 17 18 17 17 18 18 18 19 21 23 24 29 33 38 40 41 45 52 54 55 57 58 57 58 58 59 59 60 60 60 60 60 61 61 62 62 63 63 63 63 63 63 63 63 63 62 62 63 63 62 62 61 61 61 61 60 59 60 59 59 59 59 58 57 57 56 56 57 58 57 57 57 56 56 55 55 55 54 54
26 25 24 23 22 22 19 18 20 21 20 17 19 16 17 16 17 17 17 16 16 16 17 17 17 19 20 21 23 23 24 26 30 33 38 45 51 53 55 56 57 58 58 59 59 60 60 60 60 60 60 61 61 61 62 63 64 64 63 63 63 63 64 64 64 64 63 63 63 62 62 62 61 61 60 60 60 60 59 59 59 59 58 57 58 57 57 57 57 57 56 56 55 52 53 53 54
23 24 24 25 26 23 24 21 22 20 17 20 22 16 17 17 17 17 18 17 17 18 18 18 19 18 18 18 19 22 23 24 24 24 25 34 44 49 52 55 56 57 58 58 59 59 59 59 60 60 60 60 60 61 60 62 63 64 64 64 64 64 63 64 64 64 64 63 63 63 63 62 62 61 61 60 60 60 60 60 59 59 58 57 57 58 58 57 56 57 57 56 56 53 53 55 53
25 24 24 23 21 19 23 20 19 21 22 24 18 18 16 16 15 15 16 18 18 18 19 19 21 24 23 28 29 27 21 22 24 23 24 27 35 42 48 51 55 56 57 58 58 58 58 59 59 60 60 60 60 60 60 61 62 61 62 61 61 62 60 62 63 63 63 63 63 62 62 63 62 62 61 61 60 61 61 60 60 60 59 58 58 58 57 56 57 56 57 56 56 56 54 54 52
23 26 22 20 19 16 21 22 18 18 19 23 22 16 16 16 15 15 14 14 14 16 17 18 19 20 22 20 22 23 29 28 24 23 24 26 28 33 40 46 51 54 55 57 58 58 58 59 59 59 59 59 60 61 61 61 61 61 61 60 59 60 60 60 60 61 62 62 62 63 63 62 63 62 62 61 61 60 61 61 61 60 60 58 58 58 58 59 57 57 56 56 56 56 56 56 54
22 22 22 20 20 21 23 21 20 15 12 22 19 16 18 20 15 16 15 14 13 15 18 16 16 16 18 20 21 21 22 23 26 26 26 26 27 29 32 40 46 50 53 55 57 58 58 59 59 59 59 59 60 60 60 59 61 61 61 61 61 60 60 61 61 62 63 63 63 63 62 62 62 62 62 62 61 61 61 61 61 60 60 60 58 58 58 58 57 57 57 56 56 56 56 55 55
22 26 23 22 21 22 24 23 24 21 26 26 22 19 14 13 15 18 16 14 13 13 14 16 15 15 16 16 18 20 22 22 24 25 26 26 26 26 26 31 39 45 49 53 55 57 58 58 59 59 59 59 59 60 60 60 60 61 61 61 61 61 61 61 62 62 63 63 62 62 62 62 62 62 62 62 62 61 61 61 61 61 60 60 58 59 59 59 58 57 56 56 57 56 55 55 56
26 24 24 22 21 23 26 25 24 26 20 16 22 25 14 15 18 15 15 13 12 13 13 14 14 15 14 17 17 18 19 21 23 25 26 26 26 26 25 26 32 40 46 51 53 55 57 58 58 59 59 59 60 60 60 60 59 60 60 60 60 60 61 61 61 61 62 62 62 62 62 62 62 62 62 62 62 62 61 61 61 61 60 60 58 59 59 58 57 57 55 55 56 55 54 55 56
26 26 30 29 30 30 26 22 24 24 17 17 19 22 17 15 18 13 16 15 13 12 12 12 14 14 16 16 17 18 18 21 24 23 23 25 26 27 27 28 31 35 43 49 52 54 56 57 58 58 58 59 59 60 59 60 59 59 60 60 60 60 60 59 59 59 60 61 62 62 62 62 61 62 62 62 62 62 61 61 61 61 60 60 57 58 58 57 57 57 56 56 56 55 55 55 55
28 27 24 26 27 25 26 27 21 17 17 18 20 21 15 15 18 15 16 15 13 13 12 12 15 16 15 16 16 20 18 21 23 23 23 24 26 27 28 26 27 31 42 48 50 52 54 56 57 57 58 59 59 59 59 59 59 59 60 60 60 60 59 59 58 58 59 60 61 61 61 62 62 61 62 62 62 62 62 61 61 61 61 59 58 59 59 58 58 58 57 56 56 55 54 54 53
27 23 21 21 21 22 20 23 24 17 18 15 18 17 14 16 20 18 15 15 13 12 12 11 12 12 13 14 15 15 15 19 23 24 24 25 25 26 29 28 27 28 37 45 49 51 53 55 56 56 57 58 59 59 59 59 60 59 59 60 60 60 59 59 59 59 59 59 60 61 61 61 61 61 61 61 61 62 61 61 61 61 61 60 59 59 59 58 57 57 57 56 55 55 54 53 53
26 22 20 19 18 15 13 17 13 14 15 15 16 18 12 14 18 14 14 13 12 12 12 12 12 12 14 14 17 20 26 29 33 34 33 33 30 28 27 28 30 30 32 39 46 50 52 54 55 56 56 57 58 59 59 59 59 59 59 60 60 60 60 60 59 59 59 59 60 60 60 60 61 60 60 61 61 61 61 61 60 60 60 60 60 59 58 58 57 57 56 55 55 54 54 54 53
25 24 21 20 14 12 14 15 10 10 15 14 13 17 11 14 14 16 14 14 14 13 13 15 15 13 13 15 20 21 26 30 32 34 35 35 35 33 31 29 30 32 32 35 43 48 50 52 54 55 55 56 57 58 58 59 59 59 60 60 60 60 60 60 59 59 59 59 60 60 60 61 60 60 60 60 61 61 61 61 60 60 61 60 60 59 59 58 57 56 56 55 54 54 54 54 53
25 27 24 23 18 13 14 12 14 16 18 12 16 11 16 14 17 18 17 16 18 17 18 21 19 16 16 18 22 21 20 19 24 29 32 34 36 37 36 35 34 35 36 37 40 45 48 51 52 53 54 55 56 57 58 58 59 59 59 60 60 60 60 60 60 60 59 59 59 59 60 60 60 61 61 61 61 61 60 61 60 60 60 60 59 58 58 57 56 55 54 54 53 53 53 52 52
25 25 24 19 21 21 15 11 12 8 8 7 10 15 19 16 19 18 19 18 18 18 17 21 19 19 23 23 23 21 20 20 23 29 34 36 37 38 39 39 39 38 38 39 39 43 46 49 51 52 53 54 55 55 57 58 59 59 59 59 59 59 59 59 59 58 58 59 58 59 59 59 60 60 61 61 60 60 60 60 59 60 59 59 58 57 57 56 55 54 53 53 52 51 51 51 51
23 21 22 24 24 19 13 10 12 9 9 11 10 13 16 15 12 13 14 15 14 14 11 11 13 16 22 21 22 22 23 24 24 29 33 37 37 37 38 39 39 39 39 40 40 41 44 46 48 50 51 52 53 54 56 57 58 58 58 58 59 59 58 58 58 58 58 58 58 58 58 58 58 59 59 60 59 59 59 59 58 58 58 57 56 55 55 55 54 53 52 51 51 51 51 50 49
22 19 22 25 26 26 17 12 7 5 9 13 10 13 12 10 15 19 13 14 12 12 10 8 12 16 16 19 21 23 24 25 27 32 36 37 38 38 39 40 41 41 41 40 41 41 42 45 47 49 49 51 51 53 54 55 56 57 57 58 58 59 59 58 58 58 58 57 57 57 57 56 56 58 58 58 58 58 57 54 56 55 55 55 54 54 53 53 52 52 51 50 49 48 47 46 46
22 23 28 22 18 19 17 12 5 3 4 7 8 12 12 13 14 12 7 10 11 10 12 11 8 9 13 15 17 20 25 27 29 32 34 36 37 39 40 42 42 42 42 42 43 42 40 41 42 46 48 49 50 51 51 53 55 56 57 57 57 58 58 58 58 58 57 57 56 56 56 56 56 57 56 56 56 55 54 54 53 52 52 52 52 51 51 51 50 48 47 46 46 46 45 43 42
26 25 21 24 20 18 14 16 12 14 8 1 13 5 12 16 13 12 11 9 13 9 7 7 7 9 10 15 18 22 27 28 30 32 34 36 39 40 41 42 42 42 42 43 43 43 42 40 41 42 44 46 48 49 51 53 54 55 56 56 57 57 57 57 57 57 57 57 56 56 56 55 56 55 56 56 55 53 52 51 51 50 50 50 49 49 48 48 47 46 45 44 43 43 42 40 38
21 20 19 18 17 21 19 11 15 12 4 4 4 8 13 18 15 12 10 9 10 9 10 13 14 15 15 16 19 22 26 29 30 33 35 37 41 41 41 42 42 42 43 42 42 43 43 41 41 43 45 45 47 49 50 53 53 54 55 55 56 56 56 57 57 57 57 57 56 55 55 55 54 54 54 53 51 51 50 49 48 47 47 46 46 45 45 45 44 43 43 42 41 40 38 37 36
22 20 19 19 18 16 15 15 14 8 8 6 0 10 16 20 17 11 11 10 11 12 12 12 13 15 18 21 23 24 26 27 30 33 35 37 40 42 42 41 42 43 44 44 43 43 43 43 43 43 45 46 47 48 49 51 52 53 54 54 54 55 55 55 55 55 55 55 54 54 53 52 52 50 51 50 49 49 48 48 47 46 45 45 45 44 43 44 43 42 41 41 40 38 36 35 35